This demonstration page uses our WeatherBlox Daily Observations layout. Learn more.

38.88101, -77.10428

Hourly Observations for March 25, 2016

Temp ( °F °C ) Dew Point ( °F °C ) Humidity (%) Winds ( mph kmh ) Pressure ( in mb ) Visibility ( mi km ) Precip ( " mm )
12:52 am 00:52 Mostly Cloudy 65 18.3 51 10.6 61 61 S 16 26 29.74 1007 10 16.09344 0 0
1:52 am 01:52 Cloudy 65 18.3 53 11.7 66 66 S 15 24 29.74 1007 10 16.09344 0 0
2:52 am 02:52 Cloudy 68 20 55 12.8 63 63 S 17 28 29.71 1006 10 16.09344 0 0
3:52 am 03:52 Cloudy 67 19.4 56 13.3 68 68 S 20 31 29.71 1006 10 16.09344 0 0
4:52 am 04:52 Cloudy 66 18.9 56 13.3 70 70 SSW 21 33 29.71 1006 10 16.09344 0 0
5:52 am 05:52 Cloudy 66 18.9 57 13.9 73 73 SSW 21 33 29.71 1006 10 16.09344 0 0
6:52 am 06:52 Cloudy 63 17.2 56 13.3 78 78 S 14 22 29.71 1006 10 16.09344 0 0
7:52 am 07:52 Mostly Cloudy 64 17.8 58 14.4 81 81 S 8 13 29.74 1007 10 16.09344 0 0
8:52 am 08:52 Mostly Cloudy 66 18.9 58 14.4 75 75 S 10 17 29.74 1007 10 16.09344 0 0
9:52 am 09:52 Mostly Cloudy 69 20.6 59 15 70 70 SSW 16 26 29.74 1007 10 16.09344 0 0
10:32 am 10:32 Cloudy 70 21 59 15 69 69 WSW 12 19 29.74 1007 10 16.09344 0 0
10:52 am 10:52 Cloudy with Light Rain 69 20.6 59 15 70 70 W 13 20 29.77 1008 10 16.09344 0.001 0.001
11:21 am 11:21 Cloudy 67 19.4 55 12.8 66 66 NW 16 26 29.77 1008 10 16.09344 0.001 0.001
11:45 am 11:45 Cloudy with Light Rain 65 18.3 56 13.3 73 73 NW 12 19 29.77 1008 10 16.09344 0.03 0.762
11:52 am 11:52 Cloudy with Light Rain 65 18.3 57 13.9 76 76 NW 8 13 29.77 1008 10 16.09344 0.03 0.762
12:52 pm 12:52 Mostly Cloudy 67 19.4 52 11.1 59 59 NW 12 19 29.77 1008 10 16.09344 0.001 0.001
1:52 pm 13:52 Cloudy 68 20 52 11.1 57 57 NW 9 15 29.8 1009 10 16.09344 0 0
2:52 pm 14:52 Cloudy 70 21.1 49 9.4 47 47 NW 10 17 29.8 1009 10 16.09344 0 0
3:52 pm 15:52 Cloudy 68 20 45 7.2 44 44 NNW 16 26 29.8 1009 10 16.09344 0 0
4:52 pm 16:52 Cloudy 67 19.4 44 6.7 44 44 NNW 14 22 29.83 1010 10 16.09344 0 0
5:52 pm 17:52 Cloudy 65 18.3 42 5.6 43 43 NNW 18 30 29.88 1012 10 16.09344 0 0
6:52 pm 18:52 Cloudy 63 17.2 41 5 45 45 N 18 30 29.91 1013 10 16.09344 0 0
7:52 pm 19:52 Cloudy 60 15.6 40 4.4 47 47 NNW 22 35 29.97 1015 10 16.09344 0 0
8:52 pm 20:52 Mostly Cloudy 57 13.9 39 3.9 51 51 NNW 16 26 30 1016 10 16.09344 0 0
9:52 pm 21:52 Mostly Cloudy 54 12.2 37 2.8 53 53 NNW 16 26 30.03 1017 10 16.09344 0 0
10:52 pm 22:52 Mostly Cloudy 52 11.1 36 2.2 55 55 N 21 33 30.06 1018 10 16.09344 0 0
11:52 pm 23:52 Mostly Cloudy 50 10 34 1.1 54 54 N 16 26 30.09 1019 10 16.09344 0 0

Powered by AerisWeather